Regional Weather Roundup
Issued by NWS

Home | Current Version | Previous Version | Graphics & Text | Print | Product List | Glossary On
Versions: 1 2 3 4 5 6 7 8 9 10 11 12 13 14 15 16 17 18 19 20 21 22 23 24 25 26 27 28 29 30 31 32 33 34 35 36 37 38 39 40 41 42 43 44 45 46 47 48 49 50
000
ASUS43 KOAX 141910
RWRNE

WEATHER ROUNDUP FOR NEBRASKA
NATIONAL WEATHER SERVICE OMAHA NE
200 PM CDT SUN SEP 14 2014

NOTES: SATELLITE DATA IS BEING USED TO AUGMENT CLOUD COVER ABOVE
       12000 FEET.
       "FAIR" INDICATES FEW OR NO CLOUDS BELOW 12,000 FEET WITH NO
       SIGNIFICANT WEATHER AND/OR OBSTRUCTIONS TO VISIBILITY.

  * THESE STATIONS DO NOT REPORT WEATHER SUCH AS RAIN...SNOW OR FOG.

NEZ001>004-019>022-054>056-142000-
NEBRASKA PANHANDLE

CITY           SKY/WX    TMP DP  RH WIND       PRES   REMARKS
SCOTTSBLUFF    CLOUDY    56  49  77 CALM      30.07F
ALLIANCE       MOSUNNY   64  52  64 VRB3      30.04F
CHADRON        PTSUNNY   58  44  60 NE8       30.08F
KIMBALL        MOSUNNY   76  47  35 S10       30.03F
SIDNEY         MOSUNNY   71  50  47 S9        30.05F
$$

NEZ057>060-069>072-079>082-142000-
SOUTHWEST NEBRASKA

CITY           SKY/WX    TMP DP  RH WIND       PRES   REMARKS
NORTH PLATTE   SUNNY     70  54  56 SE10      30.04F
IMPERIAL       SUNNY     71  54  54 SE18G28   30.03F
LEXINGTON      MOSUNNY   70  55  59 SE16G22   30.07F
MCCOOK         MOSUNNY   72  55  55 SE14      30.07F
OGALLALA       MOSUNNY   74  56  53 S15       30.04F
$$

NEZ005>010-023>029-035>040-094-142000-
NORTH CENTRAL NEBRASKA

CITY           SKY/WX    TMP DP  RH WIND       PRES   REMARKS
VALENTINE      PTSUNNY   63  42  46 E16       30.10F
AINSWORTH      MOSUNNY   61  45  55 E10       30.11F
BROKEN BOW     SUNNY     69  51  52 SE15G23   30.07F
O`NEILL        SUNNY     63  49  59 E13       30.11F
ORD            SUNNY     67  50  54 SE15G21   30.08F
THEDFORD       MOSUNNY   70  52  52 SE12G18   30.07F
$$

NEZ041-046>049-061>064-073>077-083>087-142000-
SOUTH CENTRAL NEBRASKA

CITY           SKY/WX    TMP DP  RH WIND       PRES   REMARKS
GRAND ISLAND   MOSUNNY   68  51  54 S10       30.12F
AURORA         PTSUNNY   68  49  50 SE10      30.12F
HASTINGS       PTSUNNY   68  50  52 SE8       30.11F
HEBRON         MOSUNNY   71  48  43 SE10G17   30.12F
HOLDREGE       MOSUNNY   68  51  53 SE13G20   30.09F
KEARNEY *      PTSUNNY   68  52  56 SE16      30.11F
YORK           MOSUNNY   66  50  55 S8G16     30.14F
$$

NEZ011>018-030>034-042>045-142000-
NORTHEAST NEBRASKA

CITY           SKY/WX    TMP DP  RH WIND       PRES   REMARKS
NORFOLK        MOSUNNY   65  48  54 VRB3      30.13F
ALBION         MOSUNNY   65  49  56 S8        30.12F
BLAIR          SUNNY     69  48  47 S7        30.15F
COLUMBUS *     MOSUNNY   66  48  52 S9        30.15F
FREMONT        MOSUNNY   69  49  48 S8        30.15F
TEKAMAH        MOSUNNY   68  48  48 VRB3      30.15F
WAYNE          MOSUNNY   66  48  51 S5        30.14F
$$

NEZ050>053-065>068-078-088>093-142000-
SOUTHEAST NEBRASKA

CITY           SKY/WX    TMP DP  RH WIND       PRES   REMARKS
LINCOLN        MOSUNNY   71  50  47 S12       30.15F
OMAHA EPPLEY   PTSUNNY   69  49  48 S9        30.15F
BEATRICE       SUNNY     69  50  49 S8        30.14F
FALLS CITY     SUNNY     72  50  45 S12G17    30.16F
NEBRASKA CITY  SUNNY     69  41  35 SE6       30.16F
PLATTSMOUTH    SUNNY     69  47  45 SE9       30.15F
$$

NEZ044-045-051>053-067-142000-
OMAHA AREA

CITY           SKY/WX    TMP DP  RH WIND       PRES   REMARKS
OMAHA EPPLEY   PTSUNNY   69  49  48 S9        30.15F
BLAIR          SUNNY     69  48  47 S7        30.15F
FREMONT        MOSUNNY   69  49  48 S8        30.15F
OFFUTT AFB     SUNNY     69  52  54 VRB6      30.15F
PLATTSMOUTH    SUNNY     69  47  45 SE9       30.15F
WAHOO          FAIR      70  46  42 SE10G16   30.14F
$$


USA.gov is the U.S. government's official web portal to all federal, state and local government web resources and services.